This is the latest recevied weather packets stored in our database for station/object n7wwk-1. If no packets are shown the sender has not sent any weather packets the latest 10 day(s).
| Time | Temp. | Humidity | Pressure | Rain* | Wind** | Luminosity | Snow |
|---|---|---|---|---|---|---|---|
| 1777415405 | 26.11° C | 69% | 1016.5 hPa | 0 mm | - | 179 W/m² | - |
| 1777412405 | 26.67° C | 65% | 1016.7 hPa | 0 mm | - | 322 W/m² | - |
| 1777399805 | 28.89° C | 63% | 1018.9 hPa | 0 mm | - | 788 W/m² | - |
| 1777384805 | 25° C | 77% | 1018.7 hPa | 0 mm | - | 525 W/m² | - |
| 1777381805 | 23.33° C | 84% | 1017.9 hPa | 0 mm | - | 187 W/m² | - |
| 1777380605 | 22.78° C | 87% | 1018.5 hPa | 0 mm | - | 272 W/m² | - |
| 1777380137 | 22.78° C | 87% | 1018.5 hPa | 0 mm | - | 226 W/m² | - |
| 1777378805 | 21.11° C | 92% | 1018.1 hPa | 0 mm | - | 65 W/m² | - |
| 1777374605 | 18.89° C | 97% | 1017.2 hPa | 0 mm | - | 19 W/m² | - |
| 1777368605 | 18.33° C | 96% | 1017 hPa | 0 mm | - | 0 W/m² | - |
| 1777367536 | 18.89° C | 96% | 1016.8 hPa | 0 mm | - | 0 W/m² | - |
| 1777365005 | 18.89° C | 96% | 1016.8 hPa | 0 mm | - | 0 W/m² | - |
| 1777356605 | 19.44° C | 92% | 1017.7 hPa | 0 mm | - | 0 W/m² | - |
| 1777355405 | 19.44° C | 92% | 1017.7 hPa | 0 mm | - | 0 W/m² | - |
| 1777353005 | 19.44° C | 92% | 1018.5 hPa | 0 mm | - | 0 W/m² | - |
| 1777348205 | 19.44° C | 92% | 1018.3 hPa | 0 mm | - | 0 W/m² | - |
| 1777347605 | 18.89° C | 92% | 1018.5 hPa | 0 mm | - | 0 W/m² | - |
| 1777341005 | 19.44° C | 90% | 1018.6 hPa | 0 mm | - | 0 W/m² | - |
| 1777335605 | 19.44° C | 88% | 1017.8 hPa | 0 mm | - | 0 W/m² | - |
| 1777334538 | 19.44° C | 87% | 1017.8 hPa | 0 mm | - | 1 W/m² | - |
| 1777333205 | 19.44° C | 87% | 1017.8 hPa | 0 mm | - | 7 W/m² | - |
| 1777332004 | 20° C | 86% | 1017.6 hPa | 0 mm | - | 24 W/m² | - |
| 1777330204 | 20° C | 85% | 1017.3 hPa | 0 mm | - | 66 W/m² | - |
| 1777327339 | 20.56° C | 84% | 1017.3 hPa | 0 mm | - | 99 W/m² | - |
| 1777326605 | 21.11° C | 83% | 1017.2 hPa | 0 mm | - | 80 W/m² | - |
* Rain latest hour (hover to see other rain measurements)
** Current wind speed in m/s (hover to see current wind gust speed)